sat.trackr.live / text

‹ back to catalog

STARLINK-4592

NORAD 53634 · 2022-104AY

PAYLOAD ACTIVE UNKNOWN

§ Identity

Operator
Country
US
Launch date
2022-08-28
Launch site
AFETR
Launch vehicle
Mass (kg)
RCS (m²)

Purposes: comms

External: N2YO · Heavens-Above · Gunter

§ Orbital elements

Epoch: 2026-05-24T23:29:13.977600Z

Period
95.44 min
Inclination
53.2159°
Eccentricity
0.0001137
Mean motion
15.08835850 rev/d
Perigee alt
539.0 km
Apogee alt
540.5 km
Semi-major
6,917.9 km
B*
1.6371e-4
RAAN
241.5527°
Arg perigee
90.4541°
Mean anomaly
269.6581°
Rev number
20,774

§ Raw data

STARLINK-45921 53634U 22104AY  26144.97863400  .00002318  00000+0  16371-3 0  99982 53634  53.2159 241.5527 0001137  90.4541 269.6581 15.08835850207749

JSON: /api/v1/satellites/53634 · /tle

For live sub-satellite position, see the globe view (requires WebGL).

§ Visibility from observer

Set your observer location to see the next 7 days of passes ≥ 10°. The values pass through the URL so the page stays shareable.

No JS? Fill the form by hand. The geolocation button needs JavaScript.